www.pogodaiklimat.ru

Погода и климат >> Архив погоды >> Россия >> Якутия >> Туой-Хая


ПОГОДА в Туой-Хае

  • Прогноз погоды в Туой-Хае
  • Монитор погоды в Туой-Хае

АРХИВ ПОГОДЫ в Туой-Хае

Время (UTC), дата Ветер
(напр.,м/с)
 
Видим.   Явления Облачность Т
(С)
Тd
(С)
f
(%)
Тe
(С)
Тes
(С)
Комфортность P
(гПа)
Po
(гПа)
Тmin
(С)
Tmax
(С)
R
(мм)
R24
(мм)
S
(см)
03 14.07 штиль 0 50 км 1/0
[Ci fib]
+22.0 +15.7 67 +26 +41 душно 1009.2 979.8
06 14.07 С 1 50 км 3/1 600 м
[Cb cap Ci fib]
+25.1 +16.3 58 +28 +40 жарко 1008.8 979.4
09 14.07 штиль 0 50 км 3/1 600 м
[Cb cap Ci fib]
+26.7 +19.1 63 +32 +38 очень
душно
1007.9 978.7
12 14.07 штиль 0 50 км 8/8 600 м
[Cb cap]
+23.9 +16.0 61 +27 +27 жарко 1008.8 979.3 +27.0
15 14.07 штиль 0 50 км 8/8 1000 м
[Sc]
+19.6 +15.7 78 +21 +21 комфорт 1010.2 980.3
18 14.07 штиль 0 50 км 8/8 1000 м
[Sc]
+17.9 +15.3 85 +18 +18 1011.1 981.0
21 14.07 В 2 50 км 9/8 1000 м
[Sc As trans]
+18.2 +12.9 71 +19 +19 1011.4 981.3
00 15.07 В 2 20 км слаб. дождь 10/8 600 м
[Cb cap As op]
+18.1 +15.9 87 +19 +19 1012.8 982.6 +16.6 0.4
03 15.07 СВ 1 50 км {дождь} 10/6 600 м
[Cb cap As op]
+20.4 +16.4 78 +25 +26 комфорт 1013.0 983.1
06 15.07 В 3 10 км дым {дождь} 9/9 600 м
[Cb cap]
+23.7 +15.4 60 +27 +28 жарко 1012.8 983.2
09 15.07 В 2 10 км дым 8/6 600 м
[Cb cap Ac trans]
+23.3 +16.6 66 +28 +30 душно 1012.6 982.9
12 15.07 В 2 10 км дым 3/0
[Ac trans]
+22.7 +15.9 65 +27 +27 душно 1012.8 983.1 +25.1 0.3
15 15.07 штиль 0 20 км дым 9/9 1000 м
[Sc]
+19.1 +15.7 81 +20 +20 1014.5 984.4
18 15.07 штиль 0 20 км дым 8/8 1000 м
[Sc]
+17.3 +15.2 87 +17 +17 1015.9 985.5
21 15.07 штиль 0 20 км дым ясно +16.2 +14.6 90 +16 +17 1018.7 985.1
00 16.07 В 1 50 км ясно +19.5 +14.7 74 +22 +28 комфорт 1016.0 985.8 +16.0
03 16.07 В 1 50 км ясно +24.0 +11.7 46 +26 +39 жарко 1015.5 985.8
06 16.07 В 1 50 км 1/0
[Ci fib]
+25.9 +12.7 44 +28 +41 жарко 1014.5 985.0
09 16.07 СВ 1 50 км 1/0
[Ci fib]
+26.2 +17.5 59 +30 +37 душно 1013.3 983.9
12 16.07 СВ 1 50 км 1/0
[Ci fib]
+24.1 +13.9 53 +26 +27 жарко 1012.8 983.2 +26.9
15 16.07 штиль 0 50 км ясно +17.7 +10.2 61 +18 +18 1013.7 983.4
18 16.07 штиль 0 50 км ясно +16.3 +10.7 69 +16 +16 1014.1 983.7
21 16.07 штиль 0 50 км ясно +14.2 +13.5 96 +14 +14 1013.4 982.8
00 17.07 СВ 1 50 км ясно +19.2 +14.9 76 +22 +28 комфорт 1012.0 981.9 +12.8
03 17.07 СВ 1 10 км дым ясно +25.6 +14.0 49 +28 +41 жарко 1010.0 980.6
06 17.07 штиль 0 10 км дым ясно +26.6 +12.5 42 +28 +44 жарко 1009.2 979.9
09 17.07 Ю 1 50 км 1/1 600 м
[Cb cap]
+29.8 +18.0 49 +34 +40 очень
душно
1006.5 977.4
12 17.07 СВ 4 50 км 9/9 600 м
[Cb cap]
+24.3 +17.2 65 +28 +28 душно 1006.5 977.2 +30.6
15 17.07 С 3 50 км {ливн. осадки} 9/9 600 м
[Cb cap]
+20.8 +18.4 86 +25 +25 комфорт 1007.9 978.3
18 17.07 С 3 50 км {ливн. осадки} 8/8 600 м
[Cb cap]
+19.1 +17.3 89 +21 +21 комфорт 1009.1 979.1
21 17.07 СВ 4 20 км дым 8/3 1000 м
[Sc Ac trans]
+12.8 +8.2 74 +11 +11 1013.7 982.9
00 18.07 В 3 50 км 1/0
[Ci fib]
+13.6 +8.0 69 +13 +17 1014.2 983.5 +12.5 0.0
03 18.07 С 3 50 км 1/1 600 м
[Cb cap]
+15.0 +7.8 62 +14 +23 1015.0 984.4
06 18.07 С 3 50 км ясно +16.9 +7.6 54 +17 +26 1014.5 984.1
09 18.07 С 2 50 км ясно +20.3 +10.4 53 +22 +28 комфорт 1013.5 983.5
12 18.07 В 3 4000 м дым ясно +17.6 +6.5 48 +18 +18 1014.0 983.7 +20.5
15 18.07 СВ 3 4000 м дым 3/0
[As trans]
+13.5 +7.4 67 +12 +12 1015.8 985.0
18 18.07 СВ 3 4000 м дым 3/0
[As trans]
+11.9 +7.6 75 +10 +10 1017.2 986.2
21 18.07 СВ 3 50 км ясно +9.9 +4.8 71 +8 +8 1018.9 987.6
00 19.07 С 3 50 км ясно +12.4 +4.0 57 +11 +15 1019.5 988.4 +9.5
03 19.07 С 4 50 км 1/1 600 м
[Cb cap]
+15.7 +6.3 54 +15 +22 1019.3 988.6
06 19.07 СВ 5 50 км 4/4 600 м
[Cb cap]
+17.6 +6.8 49 +17 +21 1018.2 987.7
09 19.07 С 3 50 км 8/0
[As trans]
+18.5 +5.7 43 +19 +21 1017.4 987.1
12 19.07 В 2 50 км 3/1 1000 м
[Sc As trans]
+17.8 +3.2 38 +18 +19 1017.7 987.3 +19.1
15 19.07 В 1 50 км 1/1 1000 м
[Sc]
+13.1 +8.1 72 +13 +13 1019.2 988.2
18 19.07 В 1 50 км 1/1 1000 м
[Sc]
+11.3 +7.6 78 +11 +11 1020.1 989.0
21 19.07 В 1 50 км 1/0
[Ci fib]
+8.9 +4.4 73 +8 +9 1022.1 990.6
00 20.07 В 2 50 км ясно +13.0 +5.3 59 +12 +17 1022.4 991.3 +8.9
03 20.07 В 1 50 км 1/1 600 м
[Cu hum]
+18.2 +4.7 41 +19 +31 опасность
простуды
1021.8 991.2
06 20.07 СВ 2 50 км ясно +20.3 +5.9 39 +22 +33 комфорт 1020.5 990.2
09 20.07 В 3 50 км ясно +21.2 +4.7 34 +22 +26 комфорт 1013.5 989.3
12 20.07 0 50 км ясно +18.6 +4.4 39 +19 +19 1019.5 989.1 +21.6
15 20.07 штиль 0 50 км ясно +12.8 +5.3 60 +13 +13 1020.4 989.4
18 20.07 штиль 0 50 км ясно +10.3 +5.5 72 +10 +10 1021.3 990.0
21 20.07 В 2 20 км дым ясно +11.6 +3.2 56 +11 +11 1021.2 990.0

 

Местоположение метеостанции Туой-Хая (Якутия, Россия): широта 62.53 долгота 111.20 высота над уровнем моря 260 м.

В архиве по умолчанию представлена погода в Туой-Хае за последнюю неделю. Архивные данные за месяц целиком и за предыдущие месяцы, начиная с января 2011 года, Вы можете получить, выбрав интересующий диапазон дат из раскрывающегося списка и нажав кнопку "Ввод!".


*Определитесь, кто Вы:
робот инопланетянин человек

Внимание! Время в таблицах - всемирное. Для получения местного времени необходимо прибавить поправку, которая равна 9 ч.

Смотрите также архив погоды в соседних городах и на ближайших метеорологических станциях:

Погода в Чернышевском (Якутия, Россия) (83 км)
Погода в Мирном (Якутия, Россия) (133 км)
Погода в Дорожном (Якутия, Россия) (204 км)
Погода в Ербогачене (Иркутская область, Россия) (218 км)
Погода в Хабардино (Якутия, Россия) (239 км)
Погода в Комаке (Якутия, Россия) (253 км)
Погода в Крестяхе (Якутия, Россия) (254 км)
Погода в Ленске (Якутия, Россия) (277 км)
Погода в Преображенке (Иркутская область, Россия) (324 км)
Погода в Сунтаре (Якутия, Россия) (333 км)

Пояснения к столбцам:

Ветер - указаны скорость ветра в м/с - средняя за 10 мин, порывы в срок и между сроками (в фигурных скобках) и направление, откуда дует ветер: С - северный, СВ - северо-восточный, В - восточный, ЮВ - юго-восточный, Ю - южный, ЮЗ - юго-западный, З - западный, СЗ - северо-западный.
Видимость - горизонтальная дальность видимости в метрах или километрах. При видимости от 1 до 10 км при отсутствии осадков обычно наблюдается дымка, при ухудшении видимости до 1 км и менее - туман. В сухую погоду видимость может ухудшаться дымом, пылью или мглою.
Явления - указаны атмосферные явления, наблюдавшиеся в срок или в последний час перед сроком; фигурными скобками обозначены явления, наблюдавшиеся между сроками (за 1-3 часа до срока); квадратными скобками обозначены град или гололедные отложения с указанием их диаметра в мм.
Облачность - указаны через наклонную черту общая и нижняя облачность в баллах и высота нижней границы облаков в метрах; квадратными скобками обозначены формы облаков: Ci - перистые, Cs - перисто-слоистые, Cc - перисто-кучевые, Ac - высококучевые, As - высокослоистые, Sc - слоисто-кучевые, Ns - слоисто-дождевые, Cu - кучевые, Cb - кучево-дождевые. Подробнее классификацию облаков см. в Атласе облаков (PDF).
T - Температура воздуха - температура, измеренная на высоте 2 м над землей.
Td - Температура точки росы - температура, при понижении до которой содержащийся в воздухе водяной пар достигнет насыщения.
f - Относительная влажность воздуха - влажноcть воздуха, измеренная на высоте 2 м над землей.
Te - Эффективная температура - температура, которую ощущает одетый по сезону человек в тени. Характеристика душности погоды. При расчете учитывается влияние влажности воздуха и скорости ветра на теплоощущения человека.
Tes - Эффективная температура на солнце - температура, которую ощущает человек, с поправкой на солнечный нагрев. Характеристика знойности погоды. Зависит от высоты солнца над горизонтом, облачности и скорости ветра. Ночью, в пасмурную погоду, а также при ветре 12 м/с и более поправка равна нулю.
P - Атмосферное давление - приведенное к уровню моря атмосферное давление.
Po - Атмосферное давление - измеренное на уровне метеостанции атмосферное давление.
Tmin - Минимальная температура - минимум температуры воздуха на высоте 2 м над землей.
Tmax - Максимальная температура - максимум температуры воздуха на высоте 2 м над землей.
R - Количество осадков - Количество выпавших осадков за период времени, мм. При наведении курсора мыши на число - период времени, за который выпало указанное количество осадков.
R24 - Количество осадков - Количество выпавших осадков за 24 часа, мм.
S - Снежный покров - Высота снежного покрова, см. При наведении курсора мыши на число - состояние снежного покрова и степень покрытия местности в баллах.